SCP
0 0 0 0 0 0 0 0 0 0 0 0 0 0 0 0 0 0 0 0 0 0 0 0 0 0 0 0 0 0 0 0 0 0 0 0 0 0 0 0 0 0 0
0 0 0 0 0 0 0 0 0 0 0 0 0 0 0 0 0 0 0 0 0 0 0 0 0 0 0 0 0 0 0 0 0 0 0 0 0 0 0 0 0 0 0
0 0 0 0 0 0 0 0 0 0 0 0 0 0 0 0 0 0 0 0 0 0 0 0 0 0 0 0 0 0 0 0 0 0 0 0 0 0 0 0 0 0 0
0 0 0 0 0 0 0 0 0 0 0 0 0 0 0 0 0 0 0 0 0 0 0 0 0 0 0 0 0 0 0 0 0 0 0 0 0 0 0 0 0 0 0
0 0 0 0 0 0 0 0 0 0 0 0 0 0 0 0 0 0 0 0 0 0 0 0 0 0 0 0 0 0 0 0 0 0 0 0 0 0 0 0 0 0 0
0 0 0 0 0 0 0 0 0 0 0 0 0 0 0 0 0 0 0 0 0 0 0 0 0 0 0 0 0 0 0 0 0 0 0 0 0 0 0 0 0 0 0
0 0 0 0 0 0 0 0 0 0 0 0 0 0 0 0 0 0 0 0 0 0 0 0 0 0 0 0 0 0 0 0 0 0 0 0 0 0 0 0 0 0 0
0 0 0 0 0 0 0 0 0 0 0 0 0 0 0 0 0 0 0 0 0 0 0 0 0 0 0 0 0 0 0 0 0 0 0 0 0 0 0 0 0 0 0
0 0 0 0 0 0 0 0 0 0 0 0 0 0 0 0 0 0 0 0 0 0 0 0 0 0 0 0 0 0 0 0 0 0 0 0 0 0 0 0 0 0 0
0 0 0 0 0 0 0 0 0 0 0 0 0 0 0 0 0 0 0 0 0 0 0 0 0 0 0 0 0 0 0 0 0 0 0 0 0 0 0 0 0 0 0
0 0 0 0 0 0 0 0 0 0 0 0 0 0 0 0 0 0 0 0 0 0 0 0 0 0 0 0 0 0 0 0 0 0 0 0 0 0 0 0 0 0 0
0 0 0 0 0 0 0 0 0 0 0 0 0 0 0 0 0 0 0 0 0 0 0 0 0 0 0 0 0 0 0 0 0 0 0 0 0 0 0 0 0 0 0
0 0 0 0 0 0 0 0 0 0 0 0 0 0 0 0 0 0 0 0 0 0 0 0 0 0 0 0 0 0 0 0 0 0 0 0 0 0 0 0 0 0 0
0 0 0 0 0 0 0 0 0 0 0 0 0 0 0 0 0 0 0 0 0 0 0 0 0 0 0 0 0 0 0 0 0 0 0 0 0 0 0 0 0 0 0
0 0 0 0 0 0 0 0 0 0 0 0 0 0 0 0 0 0 0 0 0 0 0 0 0 0 0 0 0 0 0 0 0 0 0 0 0 0 0 0 0 0 0
0 0 0 0 0 0 0 0 0 0 0 0 0 0 0 0 0 0 0 0 0 0 0 0 0 0 0 0 0 0 0 0 0 0 0 0 0 0 0 0 0 0 0
0 0 0 0 0 0 0 0 0 0 0 0 0 0 0 0 0 0 0 0 0 0 0 0 0 0 0 0 0 0 0 0 0 0 0 0 0 0 0 0 0 0 0
0 0 0 0 0 0 0 0 0 0 0 0 0 0 0 0 0 0 0 0 0 0 0 0 0 0 0 0 0 0 0 0 0 0 0 0 0 0 0 0 0 0 0
0 0 0 0 0 0 0 0 0 0 0 0 0 0 0 0 0 0 0 0 0 0 0 0 0 0 0 0 0 0 0 0 0 0 0 0 0 0 0 0 0 0 0
0 0 0 0 0 0 0 0 0 0 0 0 0 0 0 0 0 0 0 0 0 0 0 0 0 0 0 0 0 0 0 0 0 0 0 0 0 0 0 0 0 0 0
0 0 0 0 0 0 0 0 0 0 0 0 0 0 0 0 0 0 0 0 0 0 0 0 0 0 0 0 0 0 0 0 0 0 0 0 0 0 0 0 0 0 0
0 0 0 0 0 0 0 0 0 0 0 0 0 0 0 0 0 0 0 0 0 0 0 0 0 0 0 0 0 0 0 0 0 0 0 0 0 0 0 0 0 0 0
0 0 0 0 0 0 0 0 0 0 0 0 0 0 0 0 0 0 0 0 0 0 0 0 0 0 0 0 0 0 0 -0 -0 -0 0 0 0 0 0 0 0 0 0
0 0 0 0 0 0 0 0 0 0 0 0 0 0 0 0 0 0 0 0 0 0 0 0 0 0 0 0 0 0 0 0 0 0 0 0 0 0 0 0 0 0 0
0 0 0 0 0 0 0 0 0 0 0 0 0 0 0 0 0 0 0 0 0 0 0 0 0 0 0 0 0 0 0 0 0 0 0 0 0 0 0 0 0 0 0
0 0 0 0 0 0 0 0 0 0 0 0 0 0 0 0 0 0 0 0 0 0 0 0 0 0 0 0 0 0 0 0 0 0 0 0 0 0 0 0 0 0 0
Wind_Speed
13 11 10 9 9 8 7 7 7 6 7 7 7 7 7 7 8 8 9 9 10 12 12 12 14 13 11 10 9 9 10 10 14 14 11 10 11 11 12 10 10 10 11
13 11 11 9 8 8 8 7 7 7 7 7 7 7 7 8 8 9 11 11 11 13 14 14 15 13 13 11 10 11 10 11 13 17 13 10 10 10 11 10 10 10 9
12 12 11 10 9 9 8 7 7 7 6 6 6 7 8 9 9 10 10 12 13 14 15 15 15 14 13 11 11 11 11 12 11 13 13 10 8 8 9 10 10 9 11
13 12 12 12 11 9 8 7 7 7 6 7 7 8 8 9 10 11 11 13 14 14 13 13 13 12 13 12 12 12 12 11 11 10 11 10 9 7 6 8 10 7 9
14 14 14 11 9 8 8 7 7 6 7 6 7 8 8 8 8 11 12 12 11 10 9 9 10 14 18 15 11 9 9 9 9 9 11 10 9 6 7 7 10 9 9
15 14 11 10 9 9 9 8 7 7 6 6 7 8 9 8 16 22 17 8 7 7 8 8 10 12 16 21 24 23 19 12 10 10 10 10 10 8 8 8 9 9 8
15 13 12 11 11 10 10 8 8 7 6 7 7 8 9 11 19 20 21 10 5 7 7 8 9 11 16 10 17 22 17 20 20 13 12 12 12 10 10 11 10 10 10
15 14 13 12 12 10 9 9 8 6 6 6 7 8 8 11 17 18 19 7 5 7 7 8 9 10 13 16 12 8 9 11 15 11 10 12 12 12 11 12 11 11 10
16 15 14 14 12 11 11 11 8 6 7 7 7 7 7 9 15 17 16 4 6 7 7 8 10 10 20 24 10 8 10 10 13 17 20 18 20 19 14 7 6 7 8
18 16 15 14 14 13 12 10 8 7 7 7 7 6 6 7 12 15 15 4 6 6 6 7 14 17 22 21 9 7 11 10 7 9 12 14 12 13 16 7 5 6 6
13 13 14 14 14 13 10 9 8 7 6 6 6 6 6 7 10 13 15 5 5 5 6 6 8 20 21 20 17 9 15 14 7 9 9 8 8 7 7 7 7 7 8
13 14 15 15 13 11 10 9 8 7 6 6 5 5 5 6 8 10 14 13 11 5 6 6 9 19 20 20 15 17 21 17 8 9 9 8 8 7 7 7 8 9 11
14 15 13 13 12 11 11 10 8 7 6 5 5 5 4 4 5 12 13 14 14 7 5 12 15 17 16 12 16 20 16 9 9 9 10 9 8 8 8 7 7 8 10
15 14 13 13 13 12 10 9 8 8 7 6 6 5 4 4 4 5 6 6 9 8 5 9 13 14 13 13 13 11 8 9 9 9 10 9 8 8 7 7 6 5 5
14 14 13 13 12 12 11 10 10 8 8 7 6 5 4 4 6 10 5 4 4 4 4 3 5 6 7 7 7 7 7 8 9 9 9 10 9 9 8 7 6 5 4
13 13 11 10 10 10 10 8 14 12 15 16 13 10 7 9 10 10 9 9 10 9 4 3 5 6 8 8 9 9 8 8 9 9 9 9 10 9 9 8 7 5 5
15 13 11 11 11 11 10 10 8 10 14 15 15 14 11 9 9 8 7 6 6 6 2 3 4 6 7 7 7 7 7 8 8 8 9 9 10 9 9 9 8 7 6
14 16 14 11 12 11 11 10 9 9 8 5 8 11 10 8 7 6 4 2 2 2 2 3 4 6 7 7 7 7 7 8 7 8 8 9 9 9 9 9 8 9 8
13 10 11 10 10 10 10 9 9 9 8 5 4 5 9 6 5 4 1 1 2 3 3 3 4 5 6 6 7 7 7 7 8 8 8 9 9 9 9 9 9 13 9
12 19 15 10 10 10 10 10 9 9 8 7 7 6 4 4 3 3 2 2 2 3 3 4 4 5 6 6 6 6 6 6 7 7 8 8 8 8 10 11 10 9 8
10 14 22 13 10 11 11 11 10 9 9 8 7 8 11 5 5 4 4 3 3 3 3 4 4 5 5 5 5 6 6 6 6 7 8 8 8 9 9 9 10 9 9
9 10 11 10 11 11 11 10 10 10 10 9 6 7 15 7 5 4 4 3 3 3 3 3 4 4 5 5 5 5 6 6 6 6 7 7 8 8 9 9 10 10 9
10 11 10 10 10 14 13 10 10 10 9 9 8 7 6 6 5 5 4 4 3 3 3 3 4 4 4 4 4 4 5 5 5 5 6 7 8 8 9 9 11 11 11
11 12 12 11 11 11 11 11 10 10 10 9 8 8 7 6 5 5 4 3 3 3 3 3 4 5 8 6 4 4 3 4 3 4 5 6 7 8 8 9 10 12 10
11 11 12 12 12 12 11 11 11 11 10 10 9 8 7 7 6 5 4 4 3 3 3 3 3 5 7 8 6 4 6 7 6 4 4 5 7 8 8 9 9 10 9
11 12 11 11 11 11 11 11 11 11 10 10 9 8 8 7 6 5 5 4 3 3 3 3 4 6 7 5 6 6 6 7 7 7 4 4 6 7 8 8 10 10 10
Wind_Direction
191 192 191 191 193 195 204 215 222 231 236 241 246 251 256 259 259 259 263 267 267 272 273 271 272 272 271 267 262 261 262 263 275 283 283 283 282 284 291 291 288 285 287
191 189 193 189 189 197 209 217 221 229 234 240 248 254 259 264 261 261 269 275 270 273 276 276 275 276 273 271 265 263 265 265 269 280 284 284 279 281 284 286 292 293 289
187 189 192 193 196 203 210 215 218 225 235 244 250 257 262 265 267 266 266 269 270 271 275 276 276 275 274 269 264 265 267 270 271 277 285 285 280 277 282 285 286 283 285
188 191 197 200 201 204 205 209 215 222 236 248 254 259 263 266 269 271 271 269 270 272 273 271 271 272 272 268 266 265 267 271 275 279 284 286 283 275 273 287 292 285 284
191 196 202 199 194 195 201 207 214 224 240 248 259 266 269 271 269 266 265 266 271 278 276 271 273 284 286 285 280 273 272 275 282 284 286 287 286 286 282 282 287 292 286
194 200 197 188 190 197 203 208 216 228 240 251 258 266 273 276 289 295 297 282 282 282 281 281 284 290 293 299 301 299 296 294 294 289 289 287 286 281 279 277 280 285 287
197 196 191 189 194 200 204 209 219 227 238 251 259 264 269 278 294 299 304 306 285 281 282 286 296 297 306 289 289 294 294 296 298 295 290 286 284 280 275 274 267 264 265
198 195 191 189 195 195 201 214 221 223 234 248 258 264 269 280 297 304 307 316 282 279 278 279 283 285 289 290 282 274 264 273 285 286 276 277 277 272 262 262 264 266 266
201 197 192 188 190 193 205 216 218 219 233 243 253 260 266 281 300 303 310 291 284 281 280 284 295 289 298 312 320 297 291 286 295 301 303 303 303 304 299 284 270 269 276
204 198 190 188 190 197 206 210 211 216 231 242 252 254 262 272 295 306 311 287 291 288 286 290 310 314 319 331 330 312 306 302 300 306 306 305 301 296 297 287 265 262 268
197 189 187 189 193 196 199 202 207 215 227 237 251 258 262 272 296 307 309 305 294 300 305 306 308 320 333 338 337 320 318 332 326 309 303 299 294 285 277 263 243 237 241
185 188 189 188 188 190 193 199 204 211 223 236 246 258 251 266 289 299 310 319 323 303 304 305 310 329 340 340 336 332 339 339 320 314 313 311 308 301 290 276 257 240 235
187 192 190 187 188 185 188 195 198 204 215 228 235 249 253 252 278 299 310 319 324 321 307 323 333 338 340 334 331 340 343 329 321 323 319 315 310 300 296 289 274 254 245
192 192 188 187 187 188 189 193 197 200 208 218 226 237 246 255 268 277 274 289 309 316 319 326 335 337 338 334 335 333 328 325 330 324 317 315 313 312 310 308 300 289 268
195 192 190 190 187 189 194 198 199 203 200 205 213 217 224 244 262 285 301 289 293 306 332 324 327 331 333 329 327 327 328 330 332 327 324 325 325 324 322 321 312 304 280
195 194 190 187 186 187 189 199 215 211 222 228 222 213 225 241 272 295 309 317 325 340 358 329 331 331 330 330 329 328 329 334 334 330 329 329 328 327 325 325 323 316 304
198 191 187 185 185 187 187 187 193 214 224 228 230 231 233 244 268 289 302 324 327 349 349 317 321 323 322 323 323 323 324 327 328 329 330 330 330 329 329 330 331 327 318
201 196 189 186 185 185 187 186 184 185 193 211 224 227 229 237 256 272 295 338 317 325 298 303 312 316 318 320 322 323 323 326 331 331 331 332 332 331 332 333 331 329 324
199 197 191 184 183 183 182 180 180 184 187 183 177 214 216 217 231 247 234 203 258 283 294 300 304 311 315 317 319 320 321 323 328 330 330 333 333 333 332 332 330 331 332
200 200 190 183 181 180 179 179 179 181 184 185 190 190 180 179 195 216 216 222 242 265 281 293 302 308 313 314 317 320 323 324 329 330 330 332 333 333 333 333 334 332 329
194 199 197 187 184 183 182 183 180 179 184 188 191 189 183 185 196 203 211 219 231 253 272 288 298 307 311 312 314 320 323 323 327 330 330 332 334 336 335 334 335 335 333
189 190 190 182 183 185 185 182 178 179 183 183 179 193 198 184 187 196 208 218 226 243 258 274 288 296 304 308 313 319 322 323 327 331 331 333 335 338 339 340 343 343 344
188 188 189 183 182 190 188 181 179 179 181 180 177 179 183 177 187 196 204 208 215 240 259 272 286 298 306 305 304 309 313 316 317 322 330 336 340 342 344 345 346 349 349
190 189 189 185 183 187 185 182 181 180 178 176 177 179 180 179 184 192 192 195 209 237 258 273 285 301 313 319 314 309 302 304 310 327 337 339 342 344 346 349 351 352 354
192 191 190 186 185 187 187 183 180 179 179 178 178 178 176 176 181 186 184 189 203 232 261 280 289 304 314 320 320 313 323 340 353 5 351 348 345 346 349 352 354 356 360
193 192 191 187 185 186 186 184 181 179 180 179 175 172 171 172 175 177 177 184 199 227 257 279 295 308 314 317 319 324 334 347 359 21 20 354 354 357 1 360 357 3 6